Regional Weather Roundup
Issued by NWS Goodland, KS

Home | Current Version | Previous Version | Graphics & Text | Print | Product List | Glossary On
Versions: 1 2 3 4 5 6 7 8 9 10 11 12 13 14 15 16 17 18 19 20 21 22 23 24 25 26 27 28 29 30 31 32 33 34 35 36 37 38 39 40 41 42 43 44 45 46 47 48 49 50
072
ASUS43 KGLD 042259
RWRGLD

GOODLAND FORECAST AREA HOURLY WEATHER ROUNDUP
NATIONAL WEATHER SERVICE GOODLAND KS
500 PM MDT WED MAY 04 2016

...OFFICIAL OBSERVATIONS...

CITY           SKY/WX    TMP DP  RH WIND       PRES   REMARKS
GOODLAND KS    MOSUNNY   74  44  34 NE8       30.11F
HILL CITY KS   SUNNY     77  39  25 NE6       30.08S
IMPERIAL NEB   SUNNY     77  35  21 VRB5      30.09F
MCCOOK NEB     SUNNY     77  41  27 NE9       30.07S
AKRON CO       SUNNY     72  35  25 VRB5      30.14F
BURLINGTON CO  SUNNY     75  34  22 E5        30.14S
LIMON CO       SUNNY     71  33  24 E5        30.17F
$$

...UNOFFICIAL OBSERVATIONS...

CITY           SKY/WX    TMP DP  RH WIND       PRES   REMARKS
COLBY KS       MOSUNNY   73  48  40 NW7       30.11F
LENORA KS        N/A     75  32  20 MISG        N/A
NORTON KS      SUNNY     75  30  19 N7        30.07S
SHARON SPRINGS   N/A     76  41  28 CALM        N/A
KIT CARSON CO    N/A     76  40  27 MISG        N/A
YUMA CO          N/A     74  41  30 E7          N/A
$$




USA.gov is the U.S. government's official web portal to all federal, state and local government web resources and services.